TimeAST,TemperatureF,Dew PointF,Humidity,Sea Level PressureIn,VisibilityMPH,Wind Direction,Wind SpeedMPH,Gust SpeedMPH,PrecipitationIn,Events,Conditions,WindDirDegrees,DateUTC
12:27 AM,77.0,71.6,83,29.93,10.0,SE,8.1,-,N/A,,Mostly Cloudy,140,2013-03-21 04:27:00
12:53 AM,77.0,71.1,82,29.92,10.0,SE,4.6,-,N/A,,Mostly Cloudy,140,2013-03-21 04:53:00
1:53 AM,75.9,70.0,82,29.90,10.0,SSE,4.6,-,N/A,,Mostly Cloudy,150,2013-03-21 05:53:00
2:50 AM,73.4,71.6,94,29.89,2.5,SSE,8.1,19.6,0.08,Rain,Rain,160,2013-03-21 06:50:00
2:53 AM,73.9,72.0,93,29.88,3.0,SSE,6.9,-,0.08,Rain,Light Rain,160,2013-03-21 06:53:00
3:11 AM,75.2,73.4,94,29.88,10.0,SE,8.1,-,0.00,,Mostly Cloudy,130,2013-03-21 07:11:00
3:53 AM,75.0,72.0,90,29.88,10.0,SE,6.9,-,0.00,,Mostly Cloudy,140,2013-03-21 07:53:00
4:53 AM,73.9,72.0,93,29.90,10.0,SE,4.6,-,N/A,,Scattered Clouds,140,2013-03-21 08:53:00
5:53 AM,75.0,71.1,87,29.91,10.0,SSE,4.6,-,N/A,,Scattered Clouds,150,2013-03-21 09:53:00
6:53 AM,73.9,71.1,91,29.93,10.0,SSE,3.5,-,N/A,,Scattered Clouds,150,2013-03-21 10:53:00
7:53 AM,78.1,72.0,81,29.96,10.0,South,9.2,-,N/A,,Overcast,170,2013-03-21 11:53:00
8:53 AM,79.0,72.0,79,29.98,10.0,South,9.2,-,N/A,,Mostly Cloudy,180,2013-03-21 12:53:00
9:53 AM,82.0,71.1,69,29.99,10.0,SSE,10.4,-,N/A,,Clear,160,2013-03-21 13:53:00
10:53 AM,82.0,72.0,71,29.99,10.0,South,9.2,-,N/A,,Clear,170,2013-03-21 14:53:00
11:53 AM,82.9,72.0,69,29.97,10.0,South,11.5,-,N/A,,Partly Cloudy,170,2013-03-21 15:53:00
12:53 PM,84.0,70.0,63,29.94,10.0,South,13.8,-,N/A,,Clear,190,2013-03-21 16:53:00
1:53 PM,84.0,71.1,65,29.92,10.0,South,12.7,-,N/A,,Clear,180,2013-03-21 17:53:00
2:53 PM,84.0,71.1,65,29.91,10.0,South,12.7,-,N/A,,Clear,190,2013-03-21 18:53:00
3:53 PM,82.0,73.0,74,29.89,10.0,South,13.8,-,N/A,,Scattered Clouds,180,2013-03-21 19:53:00
4:53 PM,82.0,73.0,74,29.90,10.0,South,13.8,-,N/A,,Scattered Clouds,190,2013-03-21 20:53:00
5:53 PM,81.0,72.0,74,29.90,10.0,SSW,10.4,-,N/A,,Clear,200,2013-03-21 21:53:00
6:53 PM,79.0,73.0,82,29.92,10.0,SW,5.8,-,N/A,,Clear,220,2013-03-21 22:53:00
7:53 PM,77.0,73.0,88,29.94,10.0,South,3.5,-,N/A,,Clear,190,2013-03-21 23:53:00
8:43 PM,77.0,71.6,83,29.96,10.0,Calm,Calm,-,N/A,,Mostly Cloudy,0,2013-03-22 00:43:00
8:53 PM,77.0,72.0,84,29.96,10.0,Calm,Calm,-,N/A,,Mostly Cloudy,0,2013-03-22 00:53:00
9:53 PM,75.9,72.0,87,29.97,10.0,Calm,Calm,-,N/A,,Clear,0,2013-03-22 01:53:00
10:53 PM,75.0,72.0,90,29.97,10.0,SW,3.5,-,N/A,,Scattered Clouds,230,2013-03-22 02:53:00
11:53 PM,73.9,72.0,93,29.96,10.0,SW,4.6,-,N/A,,Clear,220,2013-03-22 03:53:00